Flag Weather past 2 weeks in Amravati, Maharashtra, India

Now
75 °F

Haze.


Feels Like: 77 °F
Forecast: 58 / 91 °F
Wind: No wind

Location: Nagpur Sonegaon

Current Time: Oct 30, 2014 at 8:17:59 PM

Latest Report: Oct 30, 2014 at 7:40 PM


Visibility: 3 mi

Pressure: 29.95 "Hg

Humidity: 61%

Dew point: 61 °F

Location of AmravatiLocation

Historic Weather in Amravati — Graph

°F

Amravati temperature yesterday

Maximum temperature yesterday: 90 °F (at 1:10 PM)
Minimum temperature yesterday: 61 °F (at 6:10 AM)
Average temperature yesterday: 75 °F

Past Weeks' High & Low Weather Summary

 TemperatureHumidityPressure
High95 °F (Oct 20, 1:40 PM)100% (Oct 23, 10:40 PM)30.09 "Hg (Oct 23, 10:40 PM)
Low61 °F (Oct 29, 6:10 AM)28% (Oct 23, 1:40 PM)29.86 "Hg (Oct 18, 3:10 PM)
Average79 °F66%29.97 "Hg
* Reported Oct 15 6:40 PM — Oct 30 7:10 PM, Amravati, Weather by CustomWeather, © 2014

Note: Actual official high and low records may vary slightly from our data, if they occured in-between our weather recording intervals... More about our weather records

Advertising

Amravati weather history for previous 24 hours

 ConditionsComfort  
Time TempWeatherWind HumidityBarometerVisibility
7:10 PM
Oct 30
77 °FHaze.2 mph57%29.92 "Hg3 mi
6:40 PM77 °FHaze.2 mph57%29.92 "Hg3 mi
6:10 PM79 °FHaze.2 mph54%29.89 "Hg3 mi
5:40 PM82 °FHaze.2 mph51%29.89 "Hg3 mi
5:10 PM84 °FClear.2 mph48%29.89 "Hg4 mi
4:40 PM88 °FClear.3 mph40%29.86 "Hg4 mi
3:40 PM91 °FClear.3 mph36%29.86 "Hg4 mi
3:10 PM91 °FClear.2 mph36%29.86 "Hg4 mi
1:40 PM91 °FClear.3 mph34%29.89 "Hg4 mi
1:10 PM95 °FClear.3 mph30%29.92 "Hg4 mi
12:40 PM90 °FHaze.5 mph36%29.95 "Hg3 mi
12:10 PM88 °FHaze.2 mph40%29.95 "Hg3 mi
11:40 AM88 °FHaze.2 mph38%29.98 "Hg3 mi
10:40 AM84 °FHaze.2 mph43%30.01 "Hg3 mi
10:10 AM81 °FHaze.No wind51%30.04 "Hg3 mi
8:40 AM72 °FHaze.3 mph65%30.01 "Hg2 mi
7:40 AM66 °FHaze.No wind78%30.01 "Hg1 mi
7:10 AM61 °FHaze.No wind83%30.01 "Hg1 mi
6:40 AM63 °FHaze.No wind77%29.98 "Hg1 mi
6:10 AM63 °FHaze.No wind77%29.98 "Hg2 mi
5:10 AM64 °FHaze.No wind78%29.95 "Hg2 mi
2:10 AM63 °FHaze.No wind77%29.95 "Hg2 mi
12:10 AM64 °FHaze.No wind73%29.98 "Hg3 mi
11:10 PM
Oct 29
68 °FHaze.No wind73%29.98 "Hg3 mi
10:40 PM70 °FHaze.No wind69%29.98 "Hg3 mi
10:10 PM70 °FHaze.No wind69%29.98 "Hg3 mi
8:40 PM72 °FHaze.No wind65%29.98 "Hg3 mi
Weather by CustomWeather, © 2014

See weather overviewHow to use our weather pages